Weather Roundup
Issued by NWS

Home | Current Version | Previous Version | Text Only | Print | Product List | Glossary On
Versions: 1 2 3 4 5 6 7 8 9 10 11 12 13 14 15 16 17 18 19 20 21 22 23 24 25 26 27 28 29 30 31 32 33 34 35 36 37 38 39 40 41 42 43 44 45 46 47 48 49 50
435
NZUS93 KARX 190710
HRRWXR

CURRENT HOURLY OBSERVATIONS ACROSS
MUCH OF THE UPPER MISSISSIPPI VALLEY
NATIONAL WEATHER SERVICE LA CROSSE WI
100 AM CST THU JAN 19 2017


...SOUTHEAST MINNESOTA...


CITY           SKY/WX    TMP DP  RH WIND       PRES   REMARKS
ROCHESTER      CLEAR     31  31 100 S10       29.87S WCI  22
ROCHESTER/MAYO FAIR      33  33 100 SE6       29.87F WCI  28
WINONA         CLEAR     34  32  93 SE5       29.91F WCI  30
AUSTIN         CLEAR     32  30  93 S6        29.87S FOG     WCI  26
ALBERT LEA     CLEAR     36  34  93 S8        29.85F WCI  29
DODGE CENTER   CLEAR     30  28  93 CALM      29.86S
PRESTON        CLEAR     32  30  93 S15       29.89S FOG     WCI  22
OWATONNA       CLEAR     34  30  86 S13       29.84F WCI  25
FARIBAULT      CLEAR     34  30  86 S5        29.85S WCI  30
$$

...ELSEWHERE IN MINNESOTA...


CITY           SKY/WX    TMP DP  RH WIND       PRES   REMARKS
MINNEAPOLIS    CLOUDY    31  29  92 SE6       29.82F WCI  25
INTNL FALLS    CLOUDY    27  21  78 SE5       29.67S WCI  22
DULUTH         CLOUDY    32  29  88 SW8       29.76S FOG     WCI  25
RED WING       CLOUDY    30  28  93 E3        29.86S FOG
REDWOOD FALLS  CLOUDY    34  31  88 S8        29.76F WCI  27
MANKATO        CLEAR     35  33  92 S9        29.82F WCI  28
WORTHINGTON    CLEAR     38  34  85 S17       29.78S WCI  28
FAIRMONT       CLEAR     35  33  92 S12       29.82F WCI  27
$$

...SOUTHWEST WISCONSIN...


CITY           SKY/WX    TMP DP  RH WIND       PRES   REMARKS
LA CROSSE      CLOUDY    37  34  89 S12       29.92S FOG     WCI  29
PRAIRIE DU CHI MOCLDY    34  32  93 CALM      29.96S FOG
BOSCOBEL       CLOUDY    36  34  92 SW3       29.98R FOG
LONE ROCK      CLOUDY    36  33  89 CALM      29.99R FOG
PLATTEVILLE    CLOUDY    33  33 100 S8        29.97F VSB 1/2 WCI  26
FORT MC COY    CLOUDY    34  33  97 S3        29.93S
CAMP DOUGLAS   CLOUDY    34  32  93 S3        29.92F
MAUSTON-NEW LI CLOUDY    34  33  96 CALM      29.92S FOG
VIROQUA        CLOUDY    33  33 100 S8        29.93R VSB 1/2 WCI  27
WIS DELLS      FOG       33  33  98 SW12      29.94F VSB 1   WCI  24
$$

...ELSEWHERE IN WISCONSIN...


CITY           SKY/WX    TMP DP  RH WIND       PRES   REMARKS
MILWAUKEE      CLOUDY    34  31  88 SW10      30.00S FOG     WCI  26
MADISON        CLOUDY    33  32  96 S8        29.99S FOG     WCI  26
GREEN BAY      CLOUDY    33  31  92 SW6       29.94R WCI  28
EAU CLAIRE     FOG       26  25  96 CALM      29.87F VSB 3/4
BLACK RVR FLS  CLOUDY    33  33 100 S3        29.91F FOG
MEDFORD        FOG       28  27  99 S8        29.87S VSB 1/4 WCI  19
WAUSAU         CLOUDY    29  29 100 S3        29.89S FOG
WIS RAPIDS     CLOUDY    31  31 100 SW12      29.93F FOG     WCI  22
MARSHFIELD     FOG       30  28  92 SW7       29.89S VSB 1/2 WCI  23
RICE LAKE      FOG       28  27  98 E5        29.86F VSB 1/4 WCI  22
$$

...NORTHEAST IOWA...


CITY           SKY/WX    TMP DP  RH WIND       PRES   REMARKS
WATERLOO       CLOUDY    32  31  96 S7        29.94S WCI  26
DUBUQUE        FOG       33  33 100 S13       29.97S VSB 1/4 WCI  24
DECORAH        CLEAR     34  32  93 VRB6G14   29.92R WCI  29
MASON CITY     CLEAR     32  30  92 S9        29.89S WCI  24
CHARLES CITY   PTCLDY    32  32 100 S13       29.92R WCI  22
OELWEIN        CLOUDY    32  32 100 S8        29.94F FOG     WCI  25
$$

...ELSEWHERE IN IOWA...


CITY           SKY/WX    TMP DP  RH WIND       PRES   REMARKS
DES MOINES     FOG       37  36  96 S9        29.93F VSB 1/2 WCI  30
IOWA CITY      FOG       33  32  96 S5        30.01S VSB 1/4 WCI  29
FORT DODGE     CLEAR     34  30  86 SE3       29.89S
MARSHALLTOWN   FOG       32  32 100 S8        29.93F VSB 1/2 WCI  25
CEDAR RAPIDS   FOG       32  32 100 S12       29.96F VSB 1/4 WCI  23
$$

...NORTHERN ILLINOIS...


CITY           SKY/WX    TMP DP  RH WIND       PRES   REMARKS
CHICAGO-OHARE  CLOUDY    34  33  96 SW10      30.03S FOG     WCI  26
CHICAGO-MIDWAY CLOUDY    33  31  92 SW7       30.05S FOG     WCI  27
MOLINE         CLOUDY    28  27  96 CALM      30.00S FOG
ROCKFORD       CLEAR     31  28  89 S5        30.04S FOG     WCI  26
PEORIA         CLOUDY    34  33  96 S6        30.03F FOG     WCI  29
$$

NOTE: "FAIR" INDICATES FEW OR NO CLOUDS BELOW 12,000 FEET WITH NO
SIGNIFICANT WEATHER AND/OR OBSTRUCTIONS TO VISIBILITY. WIND
SPEEDS ARE IN MILES-PER-HOUR.




USA.gov is the U.S. government's official web portal to all federal, state and local government web resources and services.